This is the latest recevied weather packets stored in our database for station/object KI7MOQ. If no packets are shown the sender has not sent any weather packets the latest 1 day(s).
| Time | Temp. | Humidity | Pressure | Rain* | Wind** | Luminosity | Snow |
|---|---|---|---|---|---|---|---|
| 1778037989 | 16.11° C | 76% | 1018.1 hPa | 0 mm | 0 m/s | 1 W/m² | - |
| 1778037686 | 16.11° C | 75% | 1018 hPa | 0 mm | 0 m/s | 1 W/m² | - |
| 1778037383 | 16.67° C | 74% | 1017.8 hPa | 0 mm | 0 m/s | 2 W/m² | - |
| 1778037080 | 16.67° C | 73% | 1017.8 hPa | 0 mm | 0 m/s | 3 W/m² | - |
| 1778036778 | 16.67° C | 73% | 1018 hPa | 0 mm | 0.45 m/s, 94° | 4 W/m² | - |
| 1778036475 | 16.67° C | 73% | 1017.8 hPa | 0 mm | 0 m/s | 4 W/m² | - |
| 1778036172 | 16.67° C | 73% | 1017.9 hPa | 0 mm | 0 m/s | 5 W/m² | - |
| 1778035868 | 16.67° C | 73% | 1017.9 hPa | 0 mm | 0 m/s | 7 W/m² | - |
| 1778035566 | 16.67° C | 73% | 1017.6 hPa | 0 mm | 0 m/s | 11 W/m² | - |
| 1778035261 | 16.67° C | 72% | 1017.7 hPa | 0 mm | 0 m/s | 11 W/m² | - |
| 1778034957 | 17.22° C | 72% | 1017.6 hPa | 0 mm | 0 m/s | 11 W/m² | - |
| 1778034655 | 17.22° C | 72% | 1017.5 hPa | 0 mm | 0.45 m/s, 115° | 12 W/m² | - |
| 1778034353 | 17.22° C | 71% | 1017.9 hPa | 0 mm | 0 m/s | 16 W/m² | - |
| 1778034050 | 17.22° C | 72% | 1017.9 hPa | 0 mm | 0 m/s | 16 W/m² | - |
| 1778033747 | 17.22° C | 71% | 1017.7 hPa | 0 mm | 0.45 m/s, 93° | 22 W/m² | - |
| 1778033444 | 17.22° C | 72% | 1017.7 hPa | 0 mm | 0 m/s | 24 W/m² | - |
| 1778033142 | 17.22° C | 72% | 1017.7 hPa | 0 mm | 0 m/s | 23 W/m² | - |
| 1778032839 | 17.22° C | 72% | 1017.6 hPa | 0 mm | 0 m/s | 24 W/m² | - |
| 1778032537 | 17.22° C | 72% | 1017.6 hPa | 0 mm | 0 m/s | 24 W/m² | - |
| 1778032233 | 17.22° C | 72% | 1017.6 hPa | 0 mm | 0 m/s | 24 W/m² | - |
| 1778031931 | 17.22° C | 71% | 1017.6 hPa | 0 mm | 0 m/s | 30 W/m² | - |
| 1778031626 | 17.22° C | 71% | 1017.6 hPa | 0 mm | 0 m/s | 36 W/m² | - |
| 1778031325 | 17.22° C | 71% | 1017.6 hPa | 0 mm | 0 m/s | 40 W/m² | - |
| 1778031021 | 17.22° C | 71% | 1017.9 hPa | 0 mm | 0 m/s | 35 W/m² | - |
| 1778030717 | 17.22° C | 71% | 1017.7 hPa | 0 mm | 0 m/s | 33 W/m² | - |
* Rain latest hour (hover to see other rain measurements)
** Current wind speed in m/s (hover to see current wind gust speed)